Torna al catalogo

KOMPASS

AttivoScienzaSSO
NORAD 27002·PAYLOAD·🇷🇺 Russia

Lanciato Dec 10, 2001 da Baikonur Cosmodrome

Loading…

Prossimi Passaggi (prossime 24 ore)

TLE

AggiornatoSource: Space-Track

Epoca: Sep 14, 2026, 11:35 UTC

1 27002U 01056B   26257.48280751 -.00000018  00000-0  32476-4 0  9996
2 27002  99.8029  73.9417 0018635 265.5055 118.5497 13.70649096238476

Traccia KOMPASS in tempo reale con AllMySat

Download on the App Store